This demonstration page uses our WeatherBlox Daily Observations layout. Learn more.

Left ArrowRight Arrow

Hourly Observations for March 13, 2015

Temp ( °F °C ) Dew Point ( °F °C ) Humidity (%) Winds ( mph kmh ) Pressure ( in mb ) Visibility ( mi km ) Precip ( " mm )
12:16 am 00:16 Clear 39 4 21 -6 48 48 E 10 17 30.36 1028 10 16 N/A
12:36 am 00:36 Clear 39 4 23 -5 52 52 E 9 15 30.36 1028 10 16 N/A
12:55 am 00:55 Clear 39 4 23 -5 52 52 ESE 7 11 30.36 1028 10 16 N/A
1:16 am 01:16 Clear 41 5 23 -5 49 49 E 7 11 30.36 1028 10 16 N/A
1:35 am 01:35 Clear 41 5 23 -5 49 49 ESE 8 13 30.33 1027 10 16 N/A
1:55 am 01:55 Clear 43 6 21 -6 42 42 SE 10 17 30.30 1026 10 16 N/A
2:16 am 02:16 Clear 43 6 21 -6 42 42 ESE 10 17 30.27 1025 10 16 N/A
2:35 am 02:35 Clear 43 6 19 -7 39 39 ESE 8 13 30.30 1026 10 16 N/A
2:55 am 02:55 Clear 43 6 19 -7 39 39 SE 8 13 30.27 1025 10 16 N/A
3:16 am 03:16 Clear 43 6 19 -7 39 39 ESE 7 11 30.27 1025 10 16 N/A
3:35 am 03:35 Clear 43 6 21 -6 42 42 SE 7 11 30.27 1025 10 16 N/A
3:55 am 03:55 Clear 43 6 19 -7 39 39 SE 7 11 30.27 1025 10 16 N/A
4:16 am 04:16 Clear 43 6 21 -6 42 42 N N/A 30.27 1025 10 16 N/A
4:35 am 04:35 Clear 43 6 21 -6 42 42 N N/A 30.27 1025 10 16 N/A
4:55 am 04:55 Clear 43 6 21 -6 42 42 ESE 3 6 30.24 1024 10 16 N/A
5:16 am 05:16 Clear 43 6 21 -6 42 42 SE 3 6 30.24 1024 10 16 N/A
5:35 am 05:35 Partly Cloudy 41 5 23 -5 49 49 N N/A 30.24 1024 10 16 N/A
5:55 am 05:55 Cloudy 41 5 23 -5 49 49 N N/A 30.24 1024 10 16 N/A
6:16 am 06:16 Mostly Cloudy 39 4 27 -3 61 61 N N/A 30.27 1025 10 16 N/A
6:35 am 06:35 Partly Cloudy 39 4 27 -3 61 61 N N/A 30.27 1025 10 16 N/A
6:55 am 06:55 Clear 39 4 27 -3 61 61 N N/A 30.27 1025 10 16 N/A
7:16 am 07:16 Partly Cloudy 39 4 27 -3 61 61 N N/A 30.27 1025 10 16 N/A
7:35 am 07:35 Cloudy 41 5 27 -3 57 57 N N/A 30.24 1024 10 16 N/A
7:55 am 07:55 Cloudy 41 5 28 -2 61 61 N N/A 30.24 1024 10 16 N/A
8:16 am 08:16 Cloudy 39 4 30 -1 70 70 NNE 3 6 30.27 1025 7 11 N/A
8:35 am 08:35 Cloudy 39 4 32 undefined 75 75 NE 3 6 30.27 1025 7 11 N/A
8:55 am 08:55 Cloudy 39 4 39 4 100 100 N 6 9 30.27 1025 7 11 N/A
9:16 am 09:16 Cloudy 39 4 39 4 100 100 NNE 3 6 30.27 1025 7 11 N/A
9:35 am 09:35 Cloudy 39 4 N/A N/A N N/A 30.27 1025 7 11 N/A
9:55 am 09:55 Cloudy 39 4 N/A N/A E 5 7 30.27 1025 7 11 N/A
10:16 am 10:16 Cloudy 41 5 N/A N/A N N/A 30.24 1024 5 8 N/A
10:35 am 10:35 Cloudy 41 5 N/A N/A ESE 3 6 30.24 1024 7 11 N/A
10:55 am 10:55 Cloudy 41 5 N/A N/A SE 5 7 30.24 1024 7 11 N/A
11:16 am 11:16 Cloudy 41 5 N/A N/A SE 6 9 30.21 1023 5 8 N/A
11:35 am 11:35 Cloudy 41 5 N/A N/A SE 7 11 30.21 1023 5 8 N/A
11:55 am 11:55 Cloudy 43 6 N/A N/A SE 6 9 30.21 1023 5 8 N/A
12:16 pm 12:16 Cloudy 43 6 N/A N/A SSE 6 9 30.21 1023 7 11 N/A
12:35 pm 12:35 Cloudy 43 6 N/A N/A SSE 7 11 30.21 1023 7 11 N/A
12:55 pm 12:55 Cloudy 45 7 N/A N/A SE 6 9 30.21 1023 5 8 N/A
1:16 pm 13:16 Cloudy 45 7 N/A N/A SE 6 9 30.21 1023 5 8 N/A
1:35 pm 13:35 Cloudy 46 8 N/A N/A SE 6 9 30.21 1023 5 8 N/A
1:55 pm 13:55 Cloudy 46 8 N/A N/A SE 7 11 30.21 1023 5 8 N/A
2:16 pm 14:16 Cloudy 48 9 N/A N/A SSE 5 7 30.18 1022 4 6 N/A
2:35 pm 14:35 Cloudy 48 9 N/A N/A N N/A 30.18 1022 4 6 N/A
2:56 pm 14:56 Cloudy 50 10 N/A N/A N N/A 30.18 1022 3 5 N/A
3:16 pm 15:16 Cloudy 50 10 N/A N/A N N/A 30.15 1021 3 4 N/A
3:35 pm 15:35 Cloudy 50 10 N/A N/A N N/A 30.15 1021 3 4 N/A
3:56 pm 15:56 Cloudy 50 10 N/A N/A N N/A 30.15 1021 3 4 N/A
4:16 pm 16:16 Cloudy 52 11 N/A N/A SSE 6 9 30.15 1021 4 6 N/A
4:35 pm 16:35 Cloudy 52 11 N/A N/A SSE 6 9 30.15 1021 5 8 N/A
4:56 pm 16:56 Cloudy 52 11 N/A N/A S 7 11 30.15 1021 7 11 N/A
5:16 pm 17:16 Cloudy 52 11 N/A N/A S 7 11 30.15 1021 7 11 N/A
5:35 pm 17:35 Cloudy 52 11 N/A N/A S 9 15 30.12 1020 5 8 N/A
5:56 pm 17:56 Cloudy 52 11 N/A N/A S 9 15 30.12 1020 5 8 N/A
6:16 pm 18:16 Cloudy 50 10 N/A N/A S 10 17 30.12 1020 7 11 N/A
6:35 pm 18:35 Cloudy 50 10 N/A N/A S 7 11 30.12 1020 5 8 N/A
6:56 pm 18:56 Cloudy 50 10 N/A N/A S 8 13 30.12 1020 5 8 N/A
7:16 pm 19:16 Cloudy 50 10 N/A N/A SSE 7 11 30.12 1020 5 8 N/A
7:35 pm 19:35 Cloudy 50 10 N/A N/A SSE 7 11 30.12 1020 7 11 N/A
7:56 pm 19:56 Cloudy 50 10 N/A N/A SSE 6 9 30.12 1020 5 8 N/A
8:16 pm 20:16 Cloudy 50 10 N/A N/A SSE 5 7 30.12 1020 5 8 N/A
8:35 pm 20:35 Cloudy 50 10 N/A N/A S 6 9 30.12 1020 4 6 N/A
8:56 pm 20:56 Cloudy 50 10 N/A N/A S 6 9 30.09 1019 4 6 N/A
9:16 pm 21:16 Cloudy 50 10 N/A N/A S 6 9 30.09 1019 3 5 N/A
9:35 pm 21:35 Cloudy 50 10 N/A N/A S 6 9 30.09 1019 3 5 N/A
9:56 pm 21:56 Cloudy 50 10 N/A N/A S 6 9 30.09 1019 4 6 N/A
10:16 pm 22:16 Cloudy 50 10 N/A N/A S 5 7 30.09 1019 4 6 N/A
10:35 pm 22:35 Cloudy 50 10 N/A N/A S 3 6 30.09 1019 3 5 N/A
10:56 pm 22:56 Cloudy 50 10 N/A N/A S 3 6 30.09 1019 3 5 N/A
11:16 pm 23:16 Cloudy 50 10 N/A N/A S 3 6 30.06 1018 4 6 N/A
11:35 pm 23:35 Cloudy 50 10 N/A N/A N N/A 30.06 1018 3 5 N/A
11:56 pm 23:56 Cloudy 50 10 N/A N/A N N/A 30.06 1018 1 2 N/A

Powered by AerisWeather